YAOGAN 26               
1 40362U 14088A   19262.19771258  .00000516  00000-0  24413-4 0  9996
2 40362  97.2815 333.8048 0010394  20.2190  56.4248 15.23600756263419
YAOGAN 26 DEB           
1 40594U 14088D   19262.05266496  .00000960  00000-0  29239-4 0  9995
2 40594  97.3337 354.9397 0004557 183.0994 177.0223 15.36465497259830